Location: Chèvreville
(49.1099°N, 2.8495°E)
Time: 15:43:45
(UTC+00:00)

Cosmos 2228 - Pass Details

Date: 28 January 2023
Orbit: 585 x 612 km, 82.5° (Epoch: 25 March)

Event Time Altitude Azimuth Distance (km) Brightness Sun altitude
Rises 18:55:25 0° 345° (NNW) 2,834 6.6 -22.3°
Reaches altitude 10° 18:57:41 10° 339° (NNW) 1,925 5.8 -22.7°
Maximum altitude 19:01:45 46° 267° (W) 790 4.0 -23.4°
Drops below altitude 10° 19:05:47 10° 193° (SSW) 1,904 5.7 -24.0°
Sets 19:08:01 0° 188° (S) 2,799 6.5 -24.4°
